P/2010 A5 (LINEAR)
Epoch 2010 May 4.0 TT = JDT 2455320.5  
T 2010 Apr. 19.31663 TT                                 Nakano
q   1.7120431            (2000.0)            P               Q
n   0.08558081     Peri.  306.70714     -0.70739328     +0.69973634
a   5.0997840      Node   277.94097     -0.61210343     -0.67707861
e   0.6642911      Incl.    5.78439     -0.35344610     -0.22788947
P  11.52 (+/- 0.01 day)
From 651 observations 2010 Jan. 14-Aug. 7, mean residual 0".52.
Residuals in seconds of arc 
2010/                     100312 349  0.8-  0.8-    100518 C10  0.4-  0.9-  
100114 704  0.3+  0.3+    100312 349  0.2+  0.1-    100518 I99  0.2-  0.8+  
100114 704  0.1-  1.2+    100313 204  0.0   0.1+    100518 I99  0.8-  0.2+  
100114 704  0.4-  0.2+    100313 204  0.2+  0.0     100518 I99  0.0   0.6+  
100114 704  0.3-  0.1+    100313 H10  0.3+  1.0-    100518 I99  0.0   0.6+  
100114 704  0.2+  0.4+    100313 H10  0.9+  0.2-    100518 H06  0.2-  0.0   
100115 143  0.6-  0.3+    100313 H10  0.8+  0.4-    100518 H06  0.2-  0.2+  
100115 143  0.1+  0.4-    100313 D93  0.6+  1.5+    100520 J59  0.2-  0.2+  
100115 H10  0.3-  0.2+    100313 D93  0.7+  1.3+    100520 J59  0.6-  0.2+  
100115 H10  0.5-  0.2+    100314 A79  0.5+  0.3+    100520 J59  0.1-  0.6+  
100115 704  0.6+  0.2+    100314 A79  0.1+  0.5+    100521 945  0.1+  0.1+  
100115 H10  0.0   0.1-    100314 A79  0.3+  0.7+    100521 945  1.0-  0.8+  
100115 H10  0.3-  0.6-    100314 213  0.5+  0.5-    100521 945  0.4+  0.2-  
100115 H10  0.0   0.3-    100314 213  0.1-  0.2-    100521 945  0.2-  1.4+  
100115 H10  0.7-  0.0     100314 213  0.4-  0.0     100521 945  1.0-  0.6+  
100115 H10  0.2-  0.0     100315 D96  0.7-  0.2+    100521 D95  0.2+  1.4-  
100115 H10  0.6-  0.0     100315 D96  0.6-  0.2+    100521 D95 (2.0+  2.1-) 
100115 H10  0.5+  0.2-    100315 D96  0.1+  0.4-    100521 D93  0.1+  1.3-  
100115 H10  0.6-  0.1-    100315 D96  0.7+  0.1+    100521 D93  0.8+  1.2-  
100115 H10  0.3-  0.2-    100316 H47  0.2+  0.1-    100521 D93  0.2-  0.5-  
100115 H10  0.8-  0.0     100316 H47  0.4-  0.0     100521 D88  0.8-  0.2+  
100115 704  0.5-  0.2+    100316 H47  0.5-  0.7+    100521 D88  0.9-  0.3+  
100115 H10  0.0   0.2-    100316 H47  0.8-  0.2-    100521 E10  0.6+  0.3-  
100115 704  0.8-  1.0-    100316 H47 (3.1-  1.7-)   100521 E10  0.7+  0.2-  
100115 704  0.2-  0.5-    100318 H21  0.2+  0.4+    100521 E10  0.6+  0.2-  
100115 D90  0.4-  0.2-    100318 H21  0.1+  0.1-    100521 E10  0.4+  0.2-  
100115 D90  0.1+  0.0     100318 H21  0.1-  0.0     100521 E10  0.4+  0.3-  
100116 204  0.5+  0.2-    100318 H21  0.8+  0.2+    100521 E10  0.6+  0.2-  
100116 B33  1.9-  0.4+    100318 H21  0.0   0.2+    100521 E10  0.4+  0.2-  
100116 B33  0.4-  0.4-    100318 H21  0.0   0.1+    100521 E10  0.4+  0.3-  
100116 204  0.5+  0.3-    100318 H21  1.4+  0.1-    100521 E10  0.5+  0.2-  
100116 461  0.5+  0.1-    100319 A79  0.4+  0.4-    100521 E10  0.6+  0.4-  
100116 461  0.5+  0.1-    100319 A79  0.2+  0.2+    100521 900  0.3-  0.0   
100116 B33  0.5+  0.2-    100319 A79  0.1+  0.3+    100521 E10  0.5+  0.3-  
100116 461  0.6+  0.0     100319 A79  0.0   0.4-    100521 E10  0.5+  0.3-  
100116 461  0.5+  0.2-    100319 900  1.6-  0.5-    100521 E10  0.5+  0.3-  
100116 461  0.9+  0.2-    100319 900  0.8-  0.7-    100521 E10  0.4+  0.4-  
100116 204  0.3+  0.2-    100322 H10  0.2+  0.4+    100521 900  0.1+  0.0   
100116 143  0.1-  0.7+    100322 H10  0.3+  0.0     100521 349  0.0   0.3+  
100116 143  1.0-  0.3+    100322 H10  0.3+  0.1+    100521 349  0.1-  0.0   
100116 I19  0.3+  0.1+    100323 H47  0.2-  0.1+    100521 212  0.4-  0.6-  
100116 I19  0.4+  0.4+    100323 H47  0.6-  0.7+    100521 212  1.3+  0.6-  
100116 I19  0.0   0.3+    100323 H47  0.4-  0.4+    100521 212  0.9-  1.5+  
100116 I19  0.1+  0.3+    100323 D96  0.3+  0.0     100522 H45  0.6+  0.1-  
100116 H06  0.9-  0.0     100323 D96  0.3+  0.1-    100522 H45  0.6+  0.2+  
100116 H06  0.0   0.2-    100324 A71  1.6-  0.3+    100522 H45  0.3+  0.3-  
100116 H01  0.9+  0.4-    100324 A71  1.0-  0.4+    100522 H45  0.2+  0.4-  
100116 H06  0.9-  0.8+    100324 A71  1.8-  0.2+    100522 H45  0.3+  0.2-  
100116 H06  0.8-  0.4+    100324 D96  1.0+  0.4-    100524 204  0.1-  0.1-  
100116 H01  0.8+  0.2-    100324 D96  0.6+  0.4-    100525 204  0.0   0.1-  
100116 H06  0.8-  0.0     100325 D96  1.5+  0.7-    100531 D93  0.7+  0.2+  
100116 H01  0.9+  0.3-    100325 D96  1.4+  0.8-    100531 D93  0.3-  0.2-  
100116 H01  0.8+  0.2-    100326 H45  0.1+  0.2+    100531 D93  0.0   0.4+  
100116 H10  0.2-  0.1+    100326 H45  0.2-  0.2-    100601 H10  0.3-  0.2-  
100116 H10  0.2-  0.5-    100326 H45  0.2+  0.1+    100601 H10  0.2-  0.1-  
100116 H10  0.2-  0.0     100326 H45  0.3-  0.1+    100602 834  0.1+  0.0   
100116 926  0.6+  0.0     100326 H45  0.4-  0.1-    100602 834  0.1-  0.1+  
100116 926  0.7+  0.1+    100326 H45  0.1-  0.4-    100602 834  0.2+  0.1+  
100116 926  0.9+  0.2-    100326 H45  0.1-  0.0     100602 834  0.1+  0.1-  
100116 372  1.1+  0.3+    100326 900  0.2-  0.3+    100602 D93  0.4+  0.1+  
100116 372  0.7-  1.8+    100326 349  0.9-  0.4-    100602 D93  0.8+  0.5+  
100116 349  0.3+  0.4+    100326 349  0.5-  0.1-    100602 D93  0.5+  0.4+  
100116 349  0.4+  0.6+    100326 900  0.2-  0.1+    100602 D93  0.1+  0.7-  
100116 349  0.1+  0.4+    100326 D93  0.0   0.5+    100603 D96  0.2-  0.0   
100116 900  0.8-  0.2-    100326 D96  0.8-  0.9-    100603 D96  0.1-  0.2-  
100116 900  0.4-  0.3-    100326 D93 (0.6+  2.0-)   100603 367  0.2-  0.1-  
100117 H10  0.8-  0.1+    100326 D93  1.3+  1.6+    100603 367  0.2-  0.1-  
100117 H10  0.3-  0.3+    100326 D95  0.1-  0.1+    100603 367  0.2-  0.1-  
100117 H10  0.8-  0.2+    100327 H45 (2.5+  0.1-)   100603 D93 (0.1-  2.9+) 
100117 H10  0.3-  0.0     100327 H45  0.8+  0.1-    100603 D93  1.1+  1.0+  
100117 349  0.1+  0.2-    100327 H45  0.8-  0.3-    100603 D93  0.7+  0.0   
100117 349  0.8+  0.4+    100327 H45  0.1-  1.0-    100603 900  0.1-  0.1+  
100117 372  1.1+  0.8-    100327 H45  0.1+  0.8-    100603 900  0.1+  0.4-  
100117 372  1.4+  0.5+    100327 H45  0.3-  0.2-    100604 A71  0.4-  0.3+  
100117 372  1.0+  0.5+    100327 H45  0.0   0.5-    100604 A71  0.7-  0.5+  
100118 H10  0.1-  0.5-    100327 H47  0.7+  0.8+    100604 A71  0.8-  0.4+  
100118 H10  0.9-  0.7+    100327 H47 (2.1-  0.5-)   100604 A71  1.1-  0.2+  
100118 H10  0.4+  0.7-    100327 H47  0.4+  0.2+    100604 232  0.4-  0.0   
100121 372 (2.3+  0.0 )   100327 H47  0.3+  1.0+    100605 232  0.3-  0.0   
100121 372  0.9+  1.7-    100329 H45  0.0   1.2-    100605 232  0.3-  0.1+  
100121 372  1.3-  0.0     100329 H45  0.2+  0.0     100605 834  0.1+  0.0   
100121 372  0.0   0.9-    100329 H45  0.5+  0.2-    100605 834  0.7+  0.3-  
100122 900  0.1-  0.1-    100329 H45  0.2+  0.8-    100605 834  0.0   0.1-  
100122 900  0.2-  0.3-    100329 H45  0.4-  0.2-    100606 H47  0.4+  0.8-  
100123 585  1.1+  0.2+    100329 H45  0.5-  0.0     100606 H47  0.6-  0.8+  
100123 585  0.4+  0.5+    100329 H45  0.2-  0.2+    100606 H47  0.0   1.0+  
100123 585  0.3+  0.3-    100405 945 (2.7+  0.2-)   100606 J51  0.7+  0.6-  
100123 585  0.5+  0.6+    100405 945  1.2+  0.6+    100606 J51  0.1+  0.3+  
100123 585  0.4+  0.0     100405 945  0.8-  0.4+    100606 J51  0.0   0.5+  
100123 585  0.3+  0.5-    100405 945  0.9+  0.3-    100607 945  0.8-  0.3+  
100123 585  0.5+  0.5+    100405 945  1.5+  0.0     100607 945  0.1-  0.2+  
100123 585  0.5+  0.1-    100407 E85  0.2+  0.2-    100607 945  0.0   0.3+  
100124 B33  0.9+  0.4-    100407 E85  0.0   0.1-    100607 945  0.1-  0.9+  
100124 B33  0.3+  0.1+    100407 E85  0.1+  0.3-    100607 945  1.1-  0.5-  
100124 372  0.8+  0.0     100408 D93  0.7+  1.2+    100607 E10  0.2+  0.0   
100124 372  1.2+  0.5-    100408 D93  0.4+  1.3+    100607 E10  0.2+  0.1-  
100124 349  0.4-  0.5-    100408 D93  1.4+  1.2+    100607 E10  0.1+  0.0   
100124 349  0.1-  0.2-    100408 E85  0.3+  0.4-    100607 E10  0.2+  0.3-  
100125 H45  0.5+  0.1-    100408 E85  0.3+  0.2-    100607 E10  0.1+  0.0   
100125 H45  0.3+  0.2-    100408 E85  0.1+  0.2-    100607 E10  0.3+  0.1-  
100125 H45  0.2+  0.0     100411 945  0.9+  0.5-    100607 E10  0.1+  0.1-  
100125 H45  0.6+  0.1-    100411 945  1.0-  0.2-    100607 E10  0.1+  0.1-  
100125 H45  0.0   0.1-    100411 945  1.3+  1.4-    100607 E10  0.1+  0.2-  
100125 H45  0.2+  0.1+    100411 945  1.0+  0.6-    100607 E10  0.0   0.1-  
100125 H45  0.2+  0.2-    100411 945  0.1+  0.4+    100608 E10  0.1+  0.0   
100125 372  0.3+  0.7-    100411 D96  0.7-  0.3+    100608 E10  0.3+  0.0   
100125 372  0.2-  0.1-    100411 D96  1.1-  0.1-    100608 E10  0.4+  0.0   
100126 H06  0.8-  0.4+    100411 D96 (2.7-  1.1+)   100608 E10  0.3+  0.0   
100126 H06  0.7-  0.1-    100411 415  0.5+  0.1-    100608 E10  0.2+  0.0   
100130 585  0.2-  1.7+    100411 415  0.0   0.2+    100608 E10  0.2+  0.0   
100130 585  1.3+  1.6-    100413 H45  0.2-  0.0     100608 E10  0.1+  0.1-  
100130 585  0.6+  1.8-    100413 H45  0.0   0.2-    100608 E10  0.1+  0.2-  
100130 585  1.1+  0.4+    100413 H45  0.4+  0.1-    100608 E10  0.2+  0.2-  
100130 H06  0.5+  0.4-    100413 H45  0.1+  0.1+    100608 E10  0.2+  0.2-  
100130 H06  0.2+  0.1-    100413 H45  0.0   0.3+    100608 E10  0.3+  0.1-  
100206 372  0.8-  1.8-    100413 H45  0.1-  0.2+    100608 E10  0.2+  0.2-  
100206 372  0.0   1.0-    100413 H45  0.2-  0.1+    100608 E10  0.2+  0.2-  
100206 372  0.2+  0.2-    100413 423  0.7-  0.6+    100608 E10  0.3+  0.2-  
100207 B18  0.2-  0.2+    100413 423  1.3-  1.1+    100609 F65  0.2+  0.2-  
100207 B18  0.1-  0.2-    100415 H45  0.1-  0.0     100609 F65  0.1+  0.1-  
100207 B18  0.0   0.1-    100415 H45  0.1-  0.1-    100609 F65  0.2+  0.1-  
100207 D93  1.0-  0.2-    100415 H45  0.0   0.2-    100609 F65  0.1+  0.1-  
100207 D93  0.6-  0.0     100415 H45  0.3-  0.1-    100609 F65  0.4+  0.1-  
